| time (UTC) | temp F | wind direction | speed knots | gust knots | rain 1hr in | rain 24hr in | rain mn in | humidity % | barometer mb |
| 20260506080725 | 57 | 52 | 5.2 | 6.1 | 0.00 | 0.00 | 0.00 | 75 | 1010.7 |
| 20260506080221 | 57 | 31 | 6.1 | 7.0 | 0.00 | 0.00 | 0.00 | 75 | 1010.5 |
| 20260506073205 | 57 | 73 | 1.7 | 4.3 | 0.00 | 0.00 | 0.00 | 76 | 1010.1 |
| 20260506072702 | 57 | 26 | 4.3 | 5.2 | 0.00 | 0.00 | 0.00 | 76 | 1009.7 |
| 20260506072200 | 57 | 21 | 4.3 | 5.2 | 0.00 | 0.00 | 0.00 | 76 | 1009.9 |
| 20260506071657 | 57 | 355 | 7.0 | 8.7 | 0.00 | 0.00 | 0.00 | 77 | 1009.8 |
| 20260506071155 | 58 | 45 | 4.3 | 7.0 | 0.00 | 0.00 | 0.00 | 77 | 1009.9 |
| 20260506070651 | 58 | 44 | 3.5 | 5.2 | 0.00 | 0.00 | 0.00 | 77 | 1010.2 |
| 20260506070148 | 58 | 356 | 4.3 | 6.1 | 0.00 | 0.00 | 0.00 | 77 | 1010.2 |
| 20260506062126 | 59 | 19 | 9.6 | 11.3 | 0.00 | 0.00 | 0.00 | 78 | 1010.2 |
| 20260506061621 | 59 | 34 | 6.1 | 7.8 | 0.00 | 0.00 | 0.00 | 78 | 1010.2 |
| 20260506061120 | 59 | 35 | 7.8 | 9.6 | 0.00 | 0.00 | 0.00 | 78 | 1010.2 |
| 20260506060618 | 59 | 13 | 2.6 | 4.3 | 0.00 | 0.00 | 0.00 | 78 | 1010.4 |
| 20260506060114 | 59 | 15 | 7.0 | 11.3 | 0.00 | 0.00 | 0.00 | 77 | 1010.2 |
| 20260506051046 | 60 | 332 | 7.8 | 13.0 | 0.00 | 0.00 | 0.00 | 77 | 1010.2 |
| 20260506050544 | 60 | 334 | 4.3 | 5.2 | 0.00 | 0.00 | 0.00 | 78 | 1010.2 |
| 20260506045034 | 61 | 309 | 7.0 | 7.8 | 0.00 | 0.00 | 0.00 | 79 | 1010.0 |
| 20260506044532 | 61 | 330 | 7.8 | 11.3 | 0.00 | 0.00 | 0.00 | 80 | 1010.0 |
| 20260506044029 | 61 | 339 | 7.8 | 12.2 | 0.00 | 0.00 | 0.00 | 80 | 1009.9 |
| 20260506043526 | 61 | 358 | 4.3 | 6.1 | 0.00 | 0.00 | 0.00 | 80 | 1010.2 |
| 20260506043025 | 61 | 17 | 5.2 | 7.0 | 0.00 | 0.00 | 0.00 | 80 | 1010.0 |
| 20260506042523 | 62 | 39 | 7.0 | 11.3 | 0.00 | 0.00 | 0.00 | 80 | 1009.9 |
| 20260506042021 | 62 | 22 | 6.1 | 7.0 | 0.00 | 0.00 | 0.00 | 80 | 1010.0 |
| 20260506041519 | 62 | 24 | 9.6 | 13.9 | 0.00 | 0.00 | 0.00 | 80 | 1010.0 |
| 20260506041016 | 62 | 18 | 6.1 | 7.8 | 0.00 | 0.00 | 0.00 | 80 | 1009.9 |
| 20260506040514 | 62 | 67 | 7.8 | 9.6 | 0.00 | 0.00 | 0.00 | 80 | 1009.8 |
| 20260506040009 | 62 | 19 | 7.8 | 9.6 | 0.00 | 0.00 | 0.00 | 80 | 1009.7 |
| 20260506035506 | 63 | 3 | 7.8 | 13.9 | 0.00 | 0.00 | 0.00 | 79 | 1009.4 |
| 20260506035003 | 63 | 324 | 7.8 | 12.2 | 0.00 | 0.00 | 0.00 | 79 | 1009.4 |
| 20260506034501 | 63 | 317 | 9.6 | 9.6 | 0.00 | 0.00 | 0.00 | 79 | 1009.4 |
| 20260506033957 | 63 | 47 | 4.3 | 5.2 | 0.00 | 0.00 | 0.00 | 79 | 1009.4 |
| 20260506033455 | 63 | 352 | 9.6 | 11.3 | 0.00 | 0.00 | 0.00 | 79 | 1009.3 |
| 20260506032951 | 63 | 29 | 4.3 | 6.1 | 0.00 | 0.00 | 0.00 | 79 | 1009.3 |
| 20260506032449 | 63 | 13 | 6.1 | 7.8 | 0.00 | 0.00 | 0.00 | 79 | 1009.3 |
| 20260506031945 | 64 | 3 | 12.2 | 14.8 | 0.00 | 0.00 | 0.00 | 79 | 1009.3 |
| 20260506031443 | 64 | 39 | 10.4 | 18.2 | 0.00 | 0.00 | 0.00 | 79 | 1009.1 |
| 20260506030940 | 64 | 11 | 6.1 | 7.0 | 0.00 | 0.00 | 0.00 | 78 | 1009.1 |
| 20260506030438 | 64 | 27 | 8.7 | 11.3 | 0.00 | 0.00 | 0.00 | 78 | 1009.0 |
| 20260506025934 | 64 | 357 | 6.1 | 7.8 | 0.00 | 0.00 | 0.00 | 78 | 1009.1 |
| 20260506025431 | 65 | 21 | 8.7 | 12.2 | 0.00 | 0.00 | 0.00 | 78 | 1009.0 |
| 20260506024928 | 65 | 25 | 7.8 | 9.6 | 0.00 | 0.00 | 0.00 | 77 | 1008.7 |
| 20260506024425 | 66 | 4 | 6.1 | 7.8 | 0.00 | 0.00 | 0.00 | 77 | 1008.7 |
| 20260506023921 | 66 | 33 | 5.2 | 7.0 | 0.00 | 0.00 | 0.00 | 77 | 1008.6 |
| 20260506023418 | 66 | 87 | 4.3 | 6.1 | 0.00 | 0.00 | 0.00 | 77 | 1008.2 |
| 20260506022914 | 68 | 10 | 8.7 | 11.3 | 0.00 | 0.00 | 0.00 | 77 | 1008.0 |
| 20260506022412 | 68 | 17 | 9.6 | 12.2 | 0.00 | 0.00 | 0.00 | 77 | 1007.7 |
| 20260506021910 | 68 | 30 | 8.7 | 9.6 | 0.00 | 0.00 | 0.00 | 76 | 1007.8 |
| 20260506021407 | 68 | 17 | 6.1 | 7.8 | 0.00 | 0.00 | 0.00 | 76 | 1007.6 |
| 20260506020903 | 69 | 16 | 7.8 | 8.7 | 0.00 | 0.00 | 0.00 | 76 | 1007.5 |
| 20260506020402 | 69 | 7 | 6.1 | 7.8 | 0.00 | 0.00 | 0.00 | 75 | 1007.2 |
| 20260506015859 | 69 | 358 | 3.5 | 6.1 | 0.00 | 0.00 | 0.00 | 75 | 1007.2 |
| 20260506015356 | 69 | 339 | 7.0 | 8.7 | 0.00 | 0.00 | 0.00 | 74 | 1007.2 |
| 20260506014853 | 69 | 32 | 7.8 | 9.6 | 0.00 | 0.00 | 0.00 | 74 | 1007.1 |
| 20260506014350 | 69 | 9 | 7.8 | 8.7 | 0.00 | 0.00 | 0.00 | 74 | 1007.0 |
| 20260506013846 | 69 | 23 | 6.1 | 7.0 | 0.00 | 0.00 | 0.00 | 74 | 1006.8 |
| 20260506013344 | 70 | 16 | 7.8 | 11.3 | 0.00 | 0.00 | 0.00 | 75 | 1006.8 |
| 20260506012840 | 71 | 36 | 13.0 | 18.2 | 0.00 | 0.00 | 0.00 | 74 | 1006.8 |
| 20260506012337 | 72 | 324 | 3.5 | 4.3 | 0.00 | 0.00 | 0.00 | 73 | 1006.5 |
| 20260506011834 | 72 | 350 | 2.6 | 4.3 | 0.00 | 0.00 | 0.00 | 72 | 1006.5 |
| 20260506011331 | 72 | 4 | 4.3 | 6.1 | 0.00 | 0.00 | 0.00 | 72 | 1006.5 |
| 20260506010828 | 72 | 351 | 2.6 | 4.3 | 0.00 | 0.00 | 0.00 | 72 | 1006.3 |
| 20260506010326 | 72 | 10 | 2.6 | 5.2 | 0.00 | 0.00 | 0.00 | 71 | 1006.3 |
| 20260506005823 | 72 | 332 | 4.3 | 6.1 | 0.00 | 0.00 | 0.00 | 71 | 1006.7 |
| 20260506005320 | 72 | 355 | 5.2 | 7.0 | 0.00 | 0.00 | 0.00 | 71 | 1006.4 |
| 20260506004816 | 73 | 6 | 7.0 | 8.7 | 0.00 | 0.00 | 0.00 | 70 | 1005.7 |
| 20260506004313 | 73 | 5 | 6.1 | 7.8 | 0.00 | 0.00 | 0.00 | 70 | 1005.8 |
| 20260506003809 | 73 | 40 | 4.3 | 5.2 | 0.00 | 0.00 | 0.00 | 69 | 1006.1 |
| 20260506003306 | 73 | 17 | 6.1 | 6.1 | 0.00 | 0.00 | 0.00 | 69 | 1006.0 |
| 20260506002802 | 73 | 7 | 3.5 | 4.3 | 0.00 | 0.00 | 0.00 | 69 | 1005.8 |
| 20260506002259 | 73 | 20 | 7.8 | 11.3 | 0.00 | 0.00 | 0.00 | 69 | 1005.5 |
| 20260506001754 | 74 | 328 | 5.2 | 7.0 | 0.00 | 0.00 | 0.00 | 69 | 1005.5 |
| 20260506001252 | 74 | 357 | 5.2 | 7.0 | 0.00 | 0.00 | 0.00 | 69 | 1005.7 |
| 20260506000749 | 74 | 95 | 4.3 | 6.1 | 0.00 | 0.00 | 0.00 | 68 | 1005.3 |
| 20260506000247 | 74 | 312 | 5.2 | 6.1 | 0.00 | 0.00 | 0.00 | 68 | 1005.6 |
| 20260505235743 | 75 | 334 | 9.6 | 14.8 | 0.00 | 0.00 | 0.00 | 67 | 1005.7 |
| 20260505235241 | 75 | 19 | 4.3 | 6.1 | 0.00 | 0.00 | 0.00 | 68 | 1005.4 |
| 20260505234737 | 75 | 293 | 9.6 | 12.2 | 0.00 | 0.00 | 0.00 | 67 | 1005.6 |
| 20260505234235 | 76 | 339 | 7.8 | 9.6 | 0.00 | 0.00 | 0.00 | 66 | 1005.4 |
| 20260505233731 | 77 | 21 | 7.8 | 9.6 | 0.00 | 0.00 | 0.00 | 66 | 1005.5 |
| 20260505233230 | 78 | 350 | 5.2 | 7.8 | 0.00 | 0.00 | 0.00 | 65 | 1005.1 |
| 20260505232726 | 78 | 53 | 6.1 | 7.8 | 0.00 | 0.00 | 0.00 | 64 | 1004.9 |
| 20260505232224 | 79 | 333 | 3.5 | 4.3 | 0.00 | 0.00 | 0.00 | 63 | 1005.1 |
| 20260505231720 | 79 | 347 | 4.3 | 5.2 | 0.00 | 0.00 | 0.00 | 62 | 1005.2 |
| 20260505231220 | 79 | 326 | 7.8 | 8.7 | 0.00 | 0.00 | 0.00 | 62 | 1005.1 |
| 20260505230717 | 80 | 31 | 6.1 | 9.6 | 0.00 | 0.00 | 0.00 | 62 | 1005.1 |
| 20260505230214 | 80 | 339 | 6.1 | 8.7 | 0.00 | 0.00 | 0.00 | 62 | 1004.8 |
| 20260505225710 | 81 | 10 | 4.3 | 6.1 | 0.00 | 0.00 | 0.00 | 62 | 1004.7 |
| 20260505225207 | 82 | 318 | 6.1 | 7.8 | 0.00 | 0.00 | 0.00 | 61 | 1004.5 |
| 20260505224702 | 84 | 338 | 7.8 | 9.6 | 0.00 | 0.00 | 0.00 | 59 | 1004.4 |
| 20260505224201 | 84 | 329 | 7.8 | 12.2 | 0.00 | 0.00 | 0.00 | 56 | 1004.4 |
| 20260505223658 | 85 | 297 | 4.3 | 6.1 | 0.00 | 0.00 | 0.00 | 52 | 1004.4 |
| 20260505223153 | 86 | 316 | 4.3 | 8.7 | 0.00 | 0.00 | 0.00 | 50 | 1004.2 |
| 20260505222650 | 86 | 357 | 5.2 | 7.0 | 0.00 | 0.00 | 0.00 | 49 | 1004.2 |
| 20260505222146 | 87 | 322 | 7.8 | 8.7 | 0.00 | 0.00 | 0.00 | 48 | 1004.0 |
| 20260505221643 | 87 | 298 | 3.5 | 5.2 | 0.00 | 0.00 | 0.00 | 47 | 1003.8 |
| 20260505221139 | 87 | 269 | 6.1 | 8.7 | 0.00 | 0.00 | 0.00 | 46 | 1003.7 |
| 20260505220637 | 87 | 333 | 5.2 | 7.0 | 0.00 | 0.00 | 0.00 | 46 | 1003.8 |
| 20260505220135 | 87 | 317 | 6.1 | 7.0 | 0.00 | 0.00 | 0.00 | 46 | 1003.7 |
| 20260505215632 | 88 | 214 | 4.3 | 6.1 | 0.00 | 0.00 | 0.00 | 46 | 1004.0 |
| 20260505215130 | 88 | 344 | 4.3 | 5.2 | 0.00 | 0.00 | 0.00 | 47 | 1003.7 |
| 20260505214628 | 92 | 285 | 9.6 | 12.2 | 0.00 | 0.00 | 0.00 | 49 | 1004.0 |
| 20260505214125 | 91 | 229 | 6.1 | 9.6 | 0.00 | 0.00 | 0.00 | 50 | 1003.8 |
| 20260505213623 | 91 | 207 | 4.3 | 7.0 | 0.00 | 0.00 | 0.00 | 48 | 1003.9 |
| 20260505213119 | 90 | 227 | 6.1 | 7.8 | 0.00 | 0.00 | 0.00 | 50 | 1003.9 |
| 20260505212615 | 91 | 358 | 3.5 | 5.2 | 0.00 | 0.00 | 0.00 | 49 | 1003.9 |
| 20260505212113 | 90 | 306 | 6.1 | 6.1 | 0.00 | 0.00 | 0.00 | 51 | 1003.8 |
| 20260505211609 | 91 | 262 | 7.0 | 8.7 | 0.00 | 0.00 | 0.00 | 49 | 1004.0 |
| 20260505211107 | 92 | 271 | 6.1 | 7.8 | 0.00 | 0.00 | 0.00 | 49 | 1004.2 |
| 20260505210603 | 93 | 96 | 0.9 | 1.7 | 0.00 | 0.00 | 0.00 | 49 | 1003.9 |
| 20260505210100 | 93 | 268 | 4.3 | 6.1 | 0.00 | 0.00 | 0.00 | 48 | 1004.1 |
| 20260505205558 | 93 | 202 | 4.3 | 6.1 | 0.00 | 0.00 | 0.00 | 48 | 1004.4 |
| 20260505205055 | 93 | 232 | 7.0 | 8.7 | 0.00 | 0.00 | 0.00 | 48 | 1004.3 |
| 20260505204552 | 94 | 242 | 4.3 | 6.1 | 0.00 | 0.00 | 0.00 | 49 | 1004.5 |
| 20260505204050 | 94 | 179 | 0.9 | 0.9 | 0.00 | 0.00 | 0.00 | 49 | 1004.4 |
| 20260505203546 | 93 | 236 | 6.1 | 7.0 | 0.00 | 0.00 | 0.00 | 51 | 1004.4 |
| 20260505203043 | 92 | 93 | 3.5 | 5.2 | 0.00 | 0.00 | 0.00 | 52 | 1004.4 |
| 20260505202539 | 93 | 206 | 7.0 | 9.6 | 0.00 | 0.00 | 0.00 | 51 | 1004.5 |
| 20260505202035 | 92 | 131 | 4.3 | 7.0 | 0.00 | 0.00 | 0.00 | 51 | 1004.6 |
| 20260505201532 | 91 | 253 | 2.6 | 5.2 | 0.00 | 0.00 | 0.00 | 53 | 1004.7 |
| 20260505201030 | 92 | 259 | 6.1 | 7.0 | 0.00 | 0.00 | 0.00 | 52 | 1004.6 |
| 20260505200527 | 92 | 301 | 4.3 | 5.2 | 0.00 | 0.00 | 0.00 | 52 | 1004.6 |
| 20260505200024 | 93 | 218 | 4.3 | 6.1 | 0.00 | 0.00 | 0.00 | 52 | 1004.4 |
| 20260505195520 | 92 | 142 | 4.3 | 7.0 | 0.00 | 0.00 | 0.00 | 52 | 1004.9 |
| 20260505195018 | 91 | 225 | 6.1 | 8.7 | 0.00 | 0.00 | 0.00 | 53 | 1004.8 |
| 20260505194515 | 90 | 226 | 2.6 | 5.2 | 0.00 | 0.00 | 0.00 | 55 | 1004.7 |
| 20260505194010 | 92 | 205 | 3.5 | 4.3 | 0.00 | 0.00 | 0.00 | 53 | 1004.8 |
| 20260505193508 | 91 | 192 | 6.1 | 7.8 | 0.00 | 0.00 | 0.00 | 53 | 1004.8 |
| 20260505193005 | 91 | 230 | 3.5 | 5.2 | 0.00 | 0.00 | 0.00 | 54 | 1004.9 |
| 20260505192503 | 91 | 228 | 6.1 | 7.0 | 0.00 | 0.00 | 0.00 | 53 | 1004.5 |
| 20260505192000 | 91 | 194 | 6.1 | 7.8 | 0.00 | 0.00 | 0.00 | 54 | 1004.7 |
| 20260505191459 | 90 | 303 | 6.1 | 8.7 | 0.00 | 0.00 | 0.00 | 56 | 1004.8 |
| 20260505190956 | 89 | 90 | 2.6 | 4.3 | 0.00 | 0.00 | 0.00 | 56 | 1004.7 |
| 20260505190450 | 89 | 229 | 6.1 | 7.8 | 0.00 | 0.00 | 0.00 | 56 | 1004.8 |
| 20260505185946 | 88 | 56 | 5.2 | 6.1 | 0.00 | 0.00 | 0.00 | 57 | 1004.7 |
| 20260505185444 | 87 | 206 | 4.3 | 5.2 | 0.00 | 0.00 | 0.00 | 59 | 1004.6 |
| 20260505184940 | 87 | 229 | 6.1 | 7.8 | 0.00 | 0.00 | 0.00 | 59 | 1004.8 |
| 20260505184437 | 87 | 190 | 6.1 | 9.6 | 0.00 | 0.00 | 0.00 | 59 | 1004.8 |
| 20260505183933 | 87 | 195 | 1.7 | 2.6 | 0.00 | 0.00 | 0.00 | 59 | 1004.8 |
| 20260505183430 | 87 | 197 | 7.8 | 13.0 | 0.00 | 0.00 | 0.00 | 58 | 1004.7 |
| 20260505182927 | 87 | 224 | 7.8 | 11.3 | 0.00 | 0.00 | 0.00 | 59 | 1004.6 |
| 20260505182424 | 87 | 221 | 6.1 | 8.7 | 0.00 | 0.00 | 0.00 | 59 | 1004.7 |
| 20260505181920 | 87 | 310 | 3.5 | 5.2 | 0.00 | 0.00 | 0.00 | 59 | 1004.8 |
| 20260505181418 | 87 | 182 | 7.8 | 11.3 | 0.00 | 0.00 | 0.00 | 59 | 1004.8 |
| 20260505180914 | 87 | 226 | 4.3 | 7.8 | 0.00 | 0.00 | 0.00 | 61 | 1005.2 |
| 20260505180411 | 87 | 131 | 6.1 | 9.6 | 0.00 | 0.00 | 0.00 | 61 | 1004.7 |
| 20260505175908 | 87 | 225 | 2.6 | 4.3 | 0.00 | 0.00 | 0.00 | 61 | 1004.9 |
| 20260505175404 | 87 | 195 | 6.1 | 9.6 | 0.00 | 0.00 | 0.00 | 60 | 1004.7 |
| 20260505174900 | 86 | 196 | 5.2 | 6.1 | 0.00 | 0.00 | 0.00 | 61 | 1004.6 |
| 20260505174358 | 86 | 230 | 6.1 | 8.7 | 0.00 | 0.00 | 0.00 | 62 | 1004.6 |
| 20260505173854 | 86 | 211 | 4.3 | 5.2 | 0.00 | 0.00 | 0.00 | 63 | 1004.7 |
| 20260505173350 | 85 | 171 | 7.0 | 8.7 | 0.00 | 0.00 | 0.00 | 63 | 1004.7 |
| 20260505172847 | 84 | 193 | 3.5 | 5.2 | 0.00 | 0.00 | 0.00 | 64 | 1004.8 |
| 20260505172345 | 85 | 224 | 7.8 | 8.7 | 0.00 | 0.00 | 0.00 | 63 | 1004.9 |
| 20260505171845 | 84 | 91 | 2.6 | 5.2 | 0.00 | 0.00 | 0.00 | 64 | 1005.0 |
| 20260505171342 | 84 | 196 | 7.0 | 8.7 | 0.00 | 0.00 | 0.00 | 65 | 1004.9 |
| 20260505170838 | 83 | 198 | 3.5 | 6.1 | 0.00 | 0.00 | 0.00 | 67 | 1005.0 |
| 20260505170335 | 82 | 221 | 5.2 | 6.1 | 0.00 | 0.00 | 0.00 | 67 | 1004.9 |
| 20260505165831 | 82 | 299 | 4.3 | 7.8 | 0.00 | 0.00 | 0.00 | 67 | 1004.9 |
| 20260505165326 | 83 | 141 | 6.1 | 7.8 | 0.00 | 0.00 | 0.00 | 67 | 1004.9 |
| 20260505164822 | 83 | 234 | 10.4 | 12.2 | 0.00 | 0.00 | 0.00 | 67 | 1004.8 |
| 20260505164319 | 82 | 211 | 6.1 | 7.0 | 0.00 | 0.00 | 0.00 | 68 | 1005.1 |
| 20260505163818 | 82 | 139 | 3.5 | 5.2 | 0.00 | 0.00 | 0.00 | 69 | 1004.9 |
| 20260505163316 | 81 | 220 | 7.8 | 9.6 | 0.00 | 0.00 | 0.00 | 69 | 1005.0 |
| 20260505162814 | 81 | 234 | 8.7 | 13.0 | 0.00 | 0.00 | 0.00 | 69 | 1004.9 |
| 20260505162310 | 81 | 72 | 6.1 | 9.6 | 0.00 | 0.00 | 0.00 | 70 | 1004.9 |
| 20260505161807 | 80 | 199 | 8.7 | 12.2 | 0.00 | 0.00 | 0.00 | 70 | 1004.8 |
| 20260505161304 | 80 | 311 | 9.6 | 12.2 | 0.00 | 0.00 | 0.00 | 70 | 1004.6 |
| 20260505160802 | 80 | 136 | 11.3 | 13.9 | 0.00 | 0.00 | 0.00 | 71 | 1004.8 |
| 20260505160259 | 80 | 197 | 11.3 | 14.8 | 0.00 | 0.00 | 0.00 | 71 | 1004.7 |
| 20260505153238 | 80 | 233 | 5.2 | 9.6 | 0.00 | 0.00 | 0.00 | 72 | 1004.5 |
| 20260505152735 | 80 | 232 | 7.8 | 9.6 | 0.00 | 0.00 | 0.00 | 71 | 1004.5 |
| 20260505152231 | 80 | 261 | 6.1 | 9.6 | 0.00 | 0.00 | 0.00 | 71 | 1004.4 |
| 20260505151726 | 79 | 185 | 8.7 | 12.2 | 0.00 | 0.00 | 0.00 | 73 | 1004.4 |
| 20260505151224 | 78 | 172 | 6.1 | 7.8 | 0.00 | 0.00 | 0.00 | 75 | 1004.5 |
| 20260505150720 | 78 | 112 | 7.0 | 7.8 | 0.00 | 0.00 | 0.00 | 75 | 1004.5 |
| 20260505150217 | 77 | 160 | 6.1 | 7.8 | 0.00 | 0.00 | 0.00 | 76 | 1004.6 |
| 20260505140645 | 74 | 160 | 10.4 | 15.6 | 0.00 | 0.00 | 0.00 | 82 | 1004.7 |
| 20260505140142 | 74 | 157 | 4.3 | 5.2 | 0.00 | 0.00 | 0.00 | 82 | 1004.6 |
| 20260505090211 | 72 | 39 | 6.1 | 7.8 | 0.00 | 0.00 | 0.00 | 84 | 1003.9 |
| 20260505085708 | 72 | 39 | 6.1 | 7.8 | 0.00 | 0.00 | 0.00 | 84 | 1003.9 |
| 20260505085206 | 72 | 286 | 6.1 | 7.8 | 0.00 | 0.00 | 0.00 | 84 | 1004.0 |
| 20260505084703 | 72 | 152 | 6.1 | 7.8 | 0.00 | 0.00 | 0.00 | 84 | 1004.1 |
| 20260505084202 | 72 | 205 | 6.1 | 8.7 | 0.00 | 0.00 | 0.00 | 83 | 1004.0 |
| 20260505083659 | 72 | 210 | 10.4 | 13.0 | 0.00 | 0.00 | 0.00 | 83 | 1004.1 |
| 20260505083155 | 72 | 163 | 7.8 | 9.6 | 0.00 | 0.00 | 0.00 | 83 | 1003.7 |
| 20260505082651 | 72 | 202 | 11.3 | 13.0 | 0.00 | 0.00 | 0.00 | 83 | 1003.9 |
| 20260505082148 | 72 | 179 | 4.3 | 6.1 | 0.00 | 0.00 | 0.00 | 82 | 1004.0 |
| 20260505081644 | 72 | 171 | 8.7 | 12.2 | 0.00 | 0.00 | 0.00 | 82 | 1003.8 |
| 20260505081142 | 72 | 134 | 4.3 | 6.1 | 0.00 | 0.00 | 0.00 | 82 | 1004.1 |